W9GWP Weather Reports


Display with metric or nautical units.
time (UTC)temp
F
wind
direction
speed
MPH
gust
MPH
rain 1hr
in
rain 24hr
in
rain mn
in
humidity
%
barometer
mb
20260901073917 74 188 0.0 0.0 0.00 0.00 0.00 95 1040.3
20260901072414 74 240 0.0 2.0 0.00 0.00 0.00 95 1040.3
20260901070913 74 234 0.0 1.0 0.00 0.00 0.00 95 1040.6
20260901065409 75 180 0.0 1.0 0.00 0.00 0.00 94 1040.5
20260901063909 75 188 0.0 0.0 0.00 0.00 0.00 93 1040.6
20260901062409 75 173 0.0 0.0 0.00 0.00 0.00 92 1040.3
20260901060907 76 261 0.0 0.0 0.00 0.00 0.00 92 1040.6
20260901055404 76 188 0.0 0.0 0.00 0.00 0.00 92 1040.7
20260901053859 76 194 1.0 1.0 0.00 0.00 0.00 92 1040.5
20260901052357 76 166 0.0 1.0 0.00 0.00 0.00 92 1040.4
20260901050857 76 233 0.0 3.0 0.00 0.00 0.00 92 1040.3
20260901045353 76 240 1.0 2.0 0.00 0.28 0.28 93 1040.4
20260901043852 76 188 0.0 2.0 0.00 0.28 0.28 94 1040.5
20260901042348 75 188 0.0 0.0 0.00 0.28 0.28 95 1040.7
20260901040845 75 188 0.0 0.0 0.00 0.28 0.28 94 1040.8
20260901035343 76 188 0.0 0.0 0.00 0.28 0.28 94 1040.7
20260901033843 76 240 0.0 0.0 0.00 0.28 0.28 93 1040.8
20260901032340 77 240 0.0 1.0 0.00 0.28 0.28 93 1041.1
20260901030836 77 246 0.0 0.0 0.00 0.28 0.28 93 1041.1
20260901025332 77 249 0.0 1.0 0.00 0.28 0.28 92 1041.1
20260901023830 77 270 0.0 0.0 0.00 0.28 0.28 92 1040.7
20260901022328 77 249 0.0 1.0 0.00 0.28 0.28 92 1040.9
20260901020825 78 254 0.0 0.0 0.00 0.28 0.28 91 1040.7
20260901015323 78 203 1.0 3.0 0.00 0.28 0.28 90 1040.9
20260901013819 79 216 2.0 3.0 0.00 0.28 0.28 89 1040.7
20260901012316 79 220 0.0 3.0 0.00 0.28 0.28 88 1040.6
20260901010813 79 106 0.0 0.0 0.00 0.28 0.28 89 1040.4
20260901005308 80 249 0.0 2.0 0.00 0.28 0.28 88 1040.8
20260901003808 80 239 2.0 2.0 0.00 0.28 0.28 88 1040.6
20260901002305 80 209 0.0 4.0 0.00 0.28 0.28 87 1040.1
20260901000800 81 221 0.0 2.0 0.00 0.28 0.28 87 1039.9
20260831235255 82 90 0.0 1.0 0.00 0.28 0.28 87 1039.7
20260831233751 82 180 0.0 2.0 0.00 0.28 0.28 86 1039.8
20260831232249 83 199 0.0 4.0 0.00 0.28 0.28 86 1040.4
20260831230747 83 203 3.0 3.0 0.00 0.28 0.28 84 1040.2
20260831225243 83 233 2.0 4.0 0.00 0.28 0.28 84 1040.1
20260831223740 85 232 3.0 5.0 0.00 0.28 0.28 80 1039.9
20260831222239 84 227 3.0 5.0 0.00 0.28 0.28 81 1040.1
20260831220736 84 214 6.0 6.0 0.00 0.28 0.28 81 1040.0
20260831215234 83 237 2.0 5.0 0.00 0.28 0.28 84 1039.7
20260831213729 79 237 2.0 5.0 0.00 0.28 0.28 87 1040.0
20260831212228 78 180 0.0 3.0 0.00 0.28 0.28 88 1040.0
20260831210728 78 244 3.0 5.0 0.00 0.28 0.28 88 1039.8
20260831205226 76 212 2.0 6.0 0.00 0.28 0.28 89 1038.9
20260831203725 76 241 0.0 4.0 0.00 0.27 0.27 89 1039.8
20260831202224 77 253 0.0 4.0 0.05 0.27 0.27 87 1039.2
20260831200720 79 196 0.0 6.0 0.00 0.26 0.26 82 1040.2
20260831195217 80 288 3.0 11.0 0.00 0.26 0.26 78 1040.3
20260831193713 81 183 7.0 7.0 0.00 0.26 0.26 76 1040.0
20260831192210 82 226 4.0 7.0 0.00 0.26 0.26 75 1040.0
20260831190709 83 303 2.0 10.0 0.00 0.26 0.26 73 1040.0
20260831185205 84 180 0.0 9.0 0.00 0.26 0.26 70 1039.9
20260831183705 85 251 4.0 6.0 0.00 0.26 0.26 69 1039.9
20260831182200 85 241 2.0 9.0 0.00 0.26 0.26 68 1040.0
20260831180656 84 130 5.0 10.0 0.00 0.26 0.26 68 1040.0
20260831175154 83 180 3.0 9.0 0.00 0.26 0.26 70 1039.9
20260831173653 80 218 3.0 4.0 0.00 0.26 0.26 74 1040.3
20260831172150 81 180 0.0 10.0 0.00 0.26 0.26 73 1040.4
20260831170644 80 220 6.0 7.0 0.00 0.26 0.26 73 1040.4
20260831165144 80 246 4.0 5.0 0.00 0.26 0.26 71 1040.7
20260831163642 80 228 2.0 10.0 0.00 0.26 0.26 73 1040.7
20260831162141 80 261 4.0 7.0 0.00 0.26 0.26 73 1041.2
20260831160638 79 183 3.0 7.0 0.00 0.26 0.26 74 1041.2
20260831155135 78 286 1.0 4.0 0.00 0.26 0.26 78 1041.3
20260831153631 75 332 3.0 4.0 0.00 0.26 0.26 83 1041.0
20260831152130 74 21 3.0 6.0 0.00 0.26 0.26 86 1041.2
20260831150625 72 85 0.0 3.0 0.00 0.26 0.26 88 1041.0
20260831145123 72 60 1.0 2.0 0.00 0.26 0.26 89 1041.3
20260831143619 72 142 0.0 5.0 0.00 0.26 0.26 89 1041.2
20260831142118 71 90 0.0 3.0 0.00 0.26 0.26 91 1041.0
20260831140618 71 90 0.0 2.0 0.00 0.26 0.26 92 1041.2
20260831135117 70 123 0.0 6.0 0.00 0.26 0.26 94 1041.3
20260831133613 69 84 0.0 4.0 0.00 0.26 0.26 95 1041.2
20260831132109 69 90 2.0 4.0 0.09 0.26 0.26 95 1041.1
20260831130607 69 173 1.0 3.0 0.00 0.24 0.24 95 1041.8
20260831125102 69 90 0.0 2.0 0.02 0.24 0.24 95 1041.8
20260831123559 69 90 0.0 5.0 0.00 0.24 0.24 95 1041.4
20260831122056 69 90 1.0 4.0 0.14 0.22 0.22 95 1040.8
20260831120551 69 90 0.0 3.0 0.00 0.17 0.17 95 1041.1
20260831115048 69 99 0.0 3.0 0.00 0.17 0.17 95 1041.1
20260831113548 69 82 0.0 3.0 0.02 0.17 0.17 94 1041.1
20260831112044 69 165 0.0 5.0 0.33 0.16 0.16 93 1041.6
20260831110542 70 222 5.0 6.0 0.31 0.07 0.07 92 1041.8
20260831105037 72 258 2.0 4.0 0.05 0.01 0.01 87 1041.9
20260831103536 72 225 0.0 3.0 0.00 0.00 0.00 85 1041.2
20260831102033 72 188 0.0 1.0 0.00 0.00 0.00 85 1040.6
20260831100532 72 277 0.0 1.0 0.00 0.00 0.00 86 1040.4
20260831095027 71 180 0.0 2.0 0.00 0.00 0.00 88 1040.1
20260831093524 71 206 0.0 3.0 0.00 0.00 0.00 88 1040.5
20260831092024 72 203 0.0 0.0 0.00 0.00 0.00 89 1040.5
20260831090521 72 165 0.0 2.0 0.00 0.00 0.00 89 1040.5
20260831085018 72 117 0.0 2.0 0.00 0.00 0.00 89 1040.5
20260831083517 72 82 0.0 3.0 0.00 0.00 0.00 89 1040.7
20260831082012 72 139 0.0 2.0 0.00 0.00 0.00 90 1040.7
20260831080510 72 169 2.0 2.0 0.00 0.00 0.00 90 1040.8